GW2918 Weather Reports


time (UTC)temp
F
wind
direction
speed
knots
gust
knots
rain 1hr
in
rain 24hr
in
rain mn
in
humidity
%
barometer
mb
20260905191308 72 313 1.7 4.3 0.00 0.00 0.00 68 1014.6
20260905190306 71 22 1.7 6.1 0.00 0.00 0.00 73 1014.7
20260905185306 72 295 3.5 5.2 0.00 0.00 0.00 69 1014.7
20260905184305 71 70 1.7 3.5 0.00 0.00 0.00 72 1014.8
20260905183300 70 3 5.2 6.1 0.00 0.00 0.00 70 1014.6
20260905182259 70 345 7.0 9.6 0.00 0.00 0.00 67 1014.9
20260905181254 71 64 0.0 5.2 0.00 0.00 0.00 78 1014.7
20260905180249 71 349 1.7 7.0 0.00 0.00 0.00 70 1014.6
20260905175244 71 66 1.7 7.8 0.00 0.00 0.00 72 1014.8
20260905174241 70 344 1.7 7.8 0.00 0.00 0.00 74 1014.8
20260905173238 69 18 1.7 7.8 0.00 0.00 0.00 74 1015.0
20260905172237 69 157 0.0 6.1 0.00 0.00 0.00 79 1014.9
20260905171235 68 352 0.9 7.0 0.00 0.00 0.00 80 1015.1
20260905170233 68 302 2.6 7.8 0.00 0.00 0.00 79 1015.4
20260905165233 68 73 7.8 10.4 0.00 0.00 0.00 78 1015.4
20260905164234 69 0 5.2 8.7 0.00 0.00 0.00 78 1015.2
20260905163232 69 312 1.7 6.1 0.00 0.00 0.00 76 1015.3
20260905162227 70 349 1.7 2.6 0.00 0.00 0.00 76 1015.3
20260905161226 69 10 0.9 7.0 0.00 0.00 0.00 79 1015.5
20260905160225 68 356 7.0 7.8 0.00 0.00 0.00 77 1015.3
20260905155225 68 314 2.6 7.8 0.00 0.00 0.00 80 1015.4
20260905154221 68 328 6.1 7.8 0.00 0.00 0.00 78 1015.5
20260905153218 67 345 2.6 7.0 0.00 0.00 0.00 81 1015.4
20260905152213 67 30 1.7 4.3 0.00 0.00 0.00 82 1015.5
20260905151209 67 353 5.2 7.0 0.00 0.00 0.00 82 1015.5
20260905150208 67 0 4.3 11.3 0.00 0.00 0.00 82 1015.4
20260905145207 67 44 1.7 7.8 0.00 0.00 0.00 82 1015.6
20260905144206 67 104 7.0 7.8 0.00 0.00 0.00 84 1015.3
20260905143205 66 41 2.6 8.7 0.00 0.00 0.00 85 1015.4
20260905142204 65 96 5.2 6.1 0.00 0.00 0.00 87 1015.5
20260905141201 65 87 7.0 9.6 0.00 0.00 0.00 87 1015.3
20260905140156 66 43 6.1 12.2 0.00 0.00 0.00 86 1015.5
20260905135153 64 348 9.6 10.4 0.00 0.00 0.00 90 1015.4
20260905134151 62 74 6.1 7.0 0.00 0.00 0.00 92 1015.4
20260905133147 64 355 2.6 4.3 0.00 0.00 0.00 92 1015.4
20260905132148 64 16 1.7 5.2 0.00 0.00 0.00 93 1015.5
20260905131143 63 26 2.6 12.2 0.00 0.00 0.00 94 1015.4
20260905130143 65 313 3.5 6.1 0.00 0.00 0.00 91 1015.4
20260905125140 65 302 4.3 5.2 0.00 0.00 0.00 91 1015.3
20260905124137 63 343 2.6 7.8 0.00 0.00 0.00 94 1015.1
20260905123136 64 20 1.7 6.1 0.00 0.00 0.00 93 1015.2
20260905122130 64 40 2.6 3.5 0.00 0.00 0.00 92 1015.4
20260905121126 64 43 0.9 2.6 0.00 0.00 0.00 93 1015.1
20260905120120 62 335 1.7 4.3 0.00 0.00 0.00 95 1015.4
20260905115120 62 345 2.6 2.6 0.00 0.00 0.00 95 1015.3
20260905114118 62 2 2.6 3.5 0.00 0.00 0.00 97 1015.3
20260905113115 60 15 1.7 4.3 0.00 0.00 0.00 99 1015.1
20260905112111 60 257 0.0 1.7 0.00 0.00 0.00 99 1015.0
20260905111110 59 53 0.0 1.7 0.00 0.00 0.00 99 1014.9
20260905110105 58 109 0.9 1.7 0.00 0.00 0.00 99 1014.6
20260905105105 58 96 0.9 1.7 0.00 0.00 0.00 99 1014.8
20260905104100 58 13 0.0 1.7 0.00 0.00 0.00 99 1014.4
20260905103058 58 65 0.0 1.7 0.00 0.00 0.00 99 1014.4
20260905102056 59 139 0.0 1.7 0.00 0.00 0.00 99 1014.5
20260905101052 59 38 1.7 2.6 0.00 0.00 0.00 99 1014.1
20260905100048 59 29 0.0 0.9 0.00 0.00 0.00 99 1014.3
20260905095044 59 7 1.7 1.7 0.00 0.00 0.00 99 1014.1
20260905094044 59 346 0.0 1.7 0.00 0.00 0.00 99 1014.3
20260905093041 59 31 1.7 1.7 0.00 0.00 0.00 99 1014.1
20260905092037 59 61 1.7 2.6 0.00 0.00 0.00 99 1014.0
20260905091036 59 29 0.0 2.6 0.00 0.00 0.00 98 1013.9
20260905090032 59 357 0.0 1.7 0.00 0.00 0.00 98 1014.0
20260905085026 60 144 0.9 2.6 0.00 0.00 0.00 97 1014.3
20260905084026 60 18 1.7 1.7 0.00 0.00 0.00 97 1014.3
20260905083024 60 69 0.0 0.9 0.00 0.00 0.00 97 1014.4
20260905082021 60 217 0.0 2.6 0.00 0.00 0.00 96 1014.3
20260905081020 60 350 0.9 1.7 0.00 0.00 0.00 96 1014.4
20260905080016 60 202 0.0 0.0 0.00 0.00 0.00 97 1014.5
20260905075014 60 313 0.0 0.9 0.00 0.00 0.00 96 1014.4
20260905074011 60 207 0.9 0.9 0.00 0.00 0.00 96 1014.4
20260905073008 61 258 0.0 0.9 0.00 0.00 0.00 95 1014.3
20260905072003 61 214 0.9 1.7 0.00 0.00 0.00 94 1014.3
20260905070959 62 283 0.0 0.9 0.00 0.00 0.00 94 1014.6
20260905065955 62 142 0.0 0.9 0.00 0.00 0.00 93 1014.6
20260905064954 62 143 0.0 1.7 0.00 0.00 0.00 94 1014.8
20260905063950 62 170 0.0 1.7 0.00 0.00 0.00 95 1014.7
20260905062947 63 216 0.0 1.7 0.00 0.00 0.00 93 1014.8
20260905061942 63 307 0.9 1.7 0.00 0.00 0.00 93 1014.9
20260905060941 64 24 0.0 1.7 0.00 0.00 0.00 91 1014.9
20260905055937 63 48 0.0 1.7 0.00 0.00 0.00 91 1015.0
20260905054937 64 8 1.7 3.5 0.00 0.00 0.00 90 1015.1
20260905053932 64 5 0.9 3.5 0.00 0.00 0.00 90 1015.1
20260905052929 64 23 0.0 1.7 0.00 0.00 0.00 91 1015.2
20260905051928 64 63 1.7 1.7 0.00 0.00 0.00 90 1015.2
20260905050927 65 19 0.0 1.7 0.00 0.00 0.00 91 1015.4
20260905045924 65 242 0.0 1.7 0.00 0.00 0.00 91 1015.6
20260905044920 65 20 0.0 2.6 0.00 0.00 0.00 92 1015.5
20260905043920 65 1 0.0 1.7 0.00 0.00 0.00 92 1015.6
20260905042920 65 0 2.6 2.6 0.00 0.00 0.00 91 1015.5
20260905041916 65 348 0.9 1.7 0.00 0.00 0.00 91 1015.4
20260905040912 65 31 1.7 2.6 0.00 0.00 0.00 91 1015.4
20260905035911 65 348 1.7 2.6 0.00 0.00 0.00 91 1015.3
20260905034909 65 354 2.6 2.6 0.00 0.00 0.00 91 1015.5
20260905033909 65 352 3.5 4.3 0.00 0.00 0.00 91 1015.4
20260905032904 65 354 1.7 3.5 0.00 0.00 0.00 92 1015.3
20260905031900 66 344 1.7 5.2 0.00 0.00 0.00 93 1015.4
20260905030857 66 345 1.7 4.3 0.00 0.00 0.00 92 1015.2
20260905025858 66 4 1.7 3.5 0.00 0.00 0.00 92 1015.1
20260905024856 66 339 2.6 2.6 0.00 0.00 0.00 91 1015.1
20260905023851 66 30 0.9 1.7 0.00 0.00 0.00 90 1015.5
20260905022851 66 102 0.0 2.6 0.00 0.00 0.00 89 1015.3
20260905021847 67 47 0.9 3.5 0.00 0.00 0.00 89 1015.3
20260905020843 67 11 1.7 3.5 0.00 0.00 0.00 88 1015.6
20260905015843 67 39 0.9 3.5 0.00 0.00 0.00 89 1015.4
20260905014842 67 357 1.7 3.5 0.00 0.00 0.00 90 1015.4
20260905013838 67 12 1.7 3.5 0.00 0.00 0.00 87 1015.4
20260905012835 68 349 1.7 4.3 0.00 0.00 0.00 86 1015.4
20260905011833 68 353 1.7 3.5 0.00 0.00 0.00 84 1015.3
20260905010828 68 0 1.7 3.5 0.00 0.00 0.00 83 1015.4
20260905005826 68 4 0.9 1.7 0.00 0.00 0.00 84 1015.6
20260905004821 68 28 1.7 1.7 0.00 0.00 0.00 87 1015.4
20260905003818 68 359 0.0 1.7 0.00 0.00 0.00 84 1015.4
20260905002814 68 73 0.9 2.6 0.00 0.00 0.00 84 1015.2
20260905001809 68 22 0.9 2.6 0.00 0.00 0.00 85 1014.9
20260905000804 68 47 0.9 1.7 0.00 0.00 0.00 86 1014.9
20260904235800 68 0 0.0 3.5 0.00 0.00 0.00 85 1014.9
20260904234756 68 269 0.0 2.6 0.00 0.00 0.00 86 1014.9
20260904233753 69 17 1.7 2.6 0.00 0.00 0.00 85 1014.7
20260904232751 69 340 0.9 1.7 0.00 0.00 0.00 87 1014.5
20260904231748 70 100 0.0 0.9 0.00 0.00 0.00 83 1014.9
20260904230744 70 0 0.0 0.0 0.00 0.00 0.00 84 1014.9
20260904225744 70 180 0.0 0.9 0.00 0.00 0.00 82 1014.6
20260904224742 71 19 0.9 1.7 0.00 0.00 0.00 81 1014.9
20260904223737 71 15 0.0 0.9 0.00 0.00 0.00 80 1014.9
20260904222734 71 37 0.0 2.6 0.00 0.00 0.00 79 1014.7
20260904221735 71 0 1.7 3.5 0.00 0.00 0.00 77 1014.8
20260904220730 72 50 1.7 2.6 0.00 0.00 0.00 77 1014.8
20260904215731 72 10 0.0 3.5 0.00 0.00 0.00 76 1015.0
20260904214727 73 325 4.3 5.2 0.00 0.00 0.00 74 1014.8
20260904213727 74 348 3.5 5.2 0.00 0.00 0.00 73 1014.9
20260904212724 75 349 3.5 5.2 0.00 0.00 0.00 74 1014.9
20260904211719 75 324 2.6 6.1 0.00 0.00 0.00 74 1014.8
20260904210714 75 55 2.6 5.2 0.00 0.00 0.00 73 1014.9
20260904205711 76 354 2.6 7.0 0.00 0.00 0.00 73 1014.6
20260904204709 75 57 1.7 5.2 0.00 0.00 0.00 75 1014.9
20260904203707 77 249 1.7 2.6 0.00 0.00 0.00 74 1014.9
20260904202705 75 323 2.6 6.1 0.00 0.00 0.00 73 1014.9
20260904201701 76 339 0.9 2.6 0.00 0.00 0.00 74 1014.7
20260904200702 76 1 4.3 7.8 0.00 0.00 0.00 71 1015.1
20260904195701 74 7 3.5 5.2 0.00 0.00 0.00 75 1015.3
20260904194701 74 0 6.1 7.0 0.00 0.00 0.00 75 1015.4
20260904193656 74 53 1.7 8.7 0.00 0.00 0.00 76 1015.5
20260904192653 76 17 3.5 8.7 0.00 0.00 0.00 74 1015.6
20260904191651 76 359 3.5 3.5 0.00 0.00 0.00 73 1015.4